Weather History for Toledo Metcalf, OH

Change the Weather History Date:

Wednesday, October 16, 2013

  Actual Average (KTOL) Record (KTOL)
Temperature  
Mean Temperature 56 °F 52 °F  
Max Temperature 64 °F 63 °F 85 °F (1947)
Min Temperature 48 °F 42 °F 25 °F (1991)
Degree Days  
Heating Degree Days 9 13  
Month to date heating degree days 172  
Since 1 July heating degree days 296  
Cooling Degree Days 0 0  
Month to date cooling degree days 8  
Year to date cooling degree days 792  
Growing Degree Days 6 (Base 50)    
Moisture  
Dew Point 52 °F    
Average Humidity 76    
Maximum Humidity 94    
Minimum Humidity 48    
Precipitation  
Precipitation 0.05 in 0.09 in 1.04 in (2001)
Month to date precipitation 1.38  
Year to date precipitation 27.48  
Snow  
Snow 0.00 in 0.00 in - ()
Month to date snowfall 0.0  
Since 1 July snowfall 0.0  
Since 1 September snowfall 0.0  
Snow Depth -    
Sea Level Pressure  
Sea Level Pressure 29.88 in    
Wind  
Wind Speed 10 mph (WSW)    
Max Wind Speed 18 mph    
Max Gust Speed 24 mph    
Visibility 9 miles    
Events Rain    
T = Trace of Precipitation, MM = Missing Value Source: NWS Daily Summary

Daily Weather History Graph

Daily Weather History Graph

Search for Another Location

Airport:

Trip Planner

Search our weather history database for the weather conditions in past years. The results will help you decide how hot, cold, wet, or windy it might be!

Date:

Astronomy

Oct. 16, 2013 Rise Set
Actual Time 7:47 AM EDT 6:50 PM EDT
Civil Twilight 7:19 AM EDT 7:18 PM EDT
Nautical Twilight 6:47 AM EDT 7:50 PM EDT
Astronomical Twilight 6:15 AM EDT 8:22 PM EDT
Moon 5:31 PM EDT (10/16) 5:12 AM EDT (10/16)
Length of Visible Light 11h 59m
Length of Day
11h 03m
Waxing Gibbous, 94% of the Moon is Illuminated
Oct 16
Waxing Gibbous
Oct 18
Full
Oct 26
Last Quarter
Nov 3
New
Nov 10
First Quarter

Hourly Weather History & Observations

Time (EDT) Temp. Dew Point Humidity Pressure Visibility Wind Dir Wind Speed Gust Speed Precip Events Conditions
12:03 AM 62.6 °F 60.8 °F 94% 29.88 in 3.0 mi SSW 8.1 mph - 0.02 in Rain Light Rain
12:13 AM 62.6 °F 60.8 °F 94% 29.88 in 3.0 mi SSW 13.8 mph - 0.03 in Rain Light Rain
12:53 AM 64.0 °F 61.0 °F 90% 29.87 in 10.0 mi SSW 13.8 mph - 0.04 in Rain Light Rain
1:53 AM 64.0 °F 61.0 °F 90% 29.87 in 10.0 mi SW 10.4 mph - 0.01 in   Overcast
2:37 AM 62.6 °F 60.8 °F 94% 29.88 in 9.0 mi SW 6.9 mph - N/A   Scattered Clouds
2:53 AM 63.0 °F 60.1 °F 90% 29.87 in 8.0 mi SW 8.1 mph - N/A   Partly Cloudy
3:53 AM 61.0 °F 59.0 °F 93% 29.86 in 8.0 mi SW 5.8 mph - N/A   Partly Cloudy
4:29 AM 62.6 °F 59.0 °F 88% 29.86 in 8.0 mi SSW 6.9 mph - N/A   Mostly Cloudy
4:49 AM 60.8 °F 57.2 °F 88% 29.86 in 8.0 mi SSW 6.9 mph - N/A   Partly Cloudy
4:53 AM 61.0 °F 57.9 °F 90% 29.85 in 8.0 mi SSW 5.8 mph - N/A   Partly Cloudy
5:53 AM 61.0 °F 57.9 °F 90% 29.85 in 9.0 mi South 6.9 mph - N/A   Scattered Clouds
6:53 AM 61.0 °F 57.9 °F 90% 29.85 in 8.0 mi SSW 5.8 mph - N/A   Clear
7:34 AM 60.8 °F 57.2 °F 88% 29.86 in 8.0 mi SSW 8.1 mph - N/A   Mostly Cloudy
7:53 AM 61.0 °F 57.9 °F 90% 29.86 in 8.0 mi SW 6.9 mph - N/A   Overcast
8:53 AM 61.0 °F 55.9 °F 83% 29.87 in 10.0 mi WSW 10.4 mph 19.6 mph N/A   Overcast
9:53 AM 59.0 °F 50.0 °F 72% 29.87 in 10.0 mi West 11.5 mph - N/A   Overcast
10:53 AM 60.1 °F 50.0 °F 69% 29.87 in 10.0 mi WSW 12.7 mph - N/A   Mostly Cloudy
11:07 AM 60.8 °F 50.0 °F 68% 29.88 in 10.0 mi West 11.5 mph - N/A   Partly Cloudy
11:53 AM 62.1 °F 46.9 °F 58% 29.87 in 10.0 mi WSW 12.7 mph 23.0 mph N/A   Clear
12:53 PM 62.1 °F 46.9 °F 58% 29.86 in 10.0 mi WSW 16.1 mph - N/A   Clear
1:53 PM 63.0 °F 43.0 °F 48% 29.86 in 10.0 mi WSW 18.4 mph 24.2 mph N/A   Clear
2:53 PM 63.0 °F 44.1 °F 50% 29.86 in 10.0 mi West 16.1 mph 24.2 mph N/A   Mostly Cloudy
3:53 PM 62.1 °F 43.0 °F 50% 29.86 in 10.0 mi West 13.8 mph 23.0 mph N/A   Mostly Cloudy
4:53 PM 61.0 °F 42.1 °F 50% 29.86 in 10.0 mi West 13.8 mph - N/A   Clear
5:53 PM 59.0 °F 42.1 °F 53% 29.88 in 10.0 mi West 17.3 mph - N/A   Clear
6:53 PM 54.0 °F 43.0 °F 66% 29.89 in 10.0 mi West 9.2 mph - N/A   Clear
7:53 PM 53.1 °F 43.0 °F 69% 29.91 in 10.0 mi West 8.1 mph - N/A   Mostly Cloudy
8:53 PM 54.0 °F 43.0 °F 66% 29.93 in 10.0 mi WNW 9.2 mph - N/A   Mostly Cloudy
9:53 PM 51.1 °F 43.0 °F 74% 29.95 in 10.0 mi West 6.9 mph - N/A   Clear
10:53 PM 48.9 °F 42.1 °F 77% 29.94 in 10.0 mi WSW 4.6 mph - N/A   Clear
11:53 PM 48.0 °F 42.1 °F 80% 29.94 in 10.0 mi WSW 5.8 mph - N/A   Clear